sat.trackr.live / text

‹ back to catalog

STARLINK-35927

NORAD 66624 · 2025-271H

PAYLOAD ACTIVE UNKNOWN

§ Identity

Operator
Country
US
Launch date
2025-11-23
Launch site
AFWTR
Launch vehicle
Mass (kg)
RCS (m²)

Purposes: comms

External: N2YO · Heavens-Above · Gunter

§ Orbital elements

Epoch: 2026-09-20T10:02:43.925280Z

Period
93.85 min
Inclination
53.1579°
Eccentricity
0.0001135
Mean motion
15.34384136 rev/d
Perigee alt
462.0 km
Apogee alt
463.5 km
Semi-major
6,840.9 km
B*
1.8668e-4
RAAN
313.8027°
Arg perigee
80.2804°
Mean anomaly
279.8327°
Rev number
4,740

§ Raw data

STARLINK-359271 66624U 25271H   26263.41856395  .00005933  00000+0  18668-3 0  99922 66624  53.1579 313.8027 0001135  80.2804 279.8327 15.34384136 47403

JSON: /api/v1/satellites/66624 · /tle

For live sub-satellite position, see the globe view (requires WebGL).

§ Visibility from observer

Set your observer location to see the next 7 days of passes ≥ 10°. The values pass through the URL so the page stays shareable.

No JS? Fill the form by hand. The geolocation button needs JavaScript.